sat.trackr.live / text

‹ back to catalog

STARLINK-31517

NORAD 59213 · 2024-046N

PAYLOAD ACTIVE UNKNOWN

§ Identity

Operator
Country
US
Launch date
2024-03-11
Launch site
AFWTR
Launch vehicle
Mass (kg)
RCS (m²)

Purposes: comms

External: N2YO · Heavens-Above · Gunter

§ Orbital elements

Epoch: 2026-05-25T01:15:28.503936Z

Period
93.85 min
Inclination
53.1608°
Eccentricity
0.0001146
Mean motion
15.34395649 rev/d
Perigee alt
461.9 km
Apogee alt
463.5 km
Semi-major
6,840.9 km
B*
4.7127e-5
RAAN
159.7778°
Arg perigee
85.5005°
Mean anomaly
274.6129°
Rev number
12,474

§ Raw data

STARLINK-315171 59213U 24046N   26145.05241324  .00001216  00000+0  47127-4 0  99992 59213  53.1608 159.7778 0001146  85.5005 274.6129 15.34395649124742

JSON: /api/v1/satellites/59213 · /tle

For live sub-satellite position, see the globe view (requires WebGL).

§ Visibility from observer

Set your observer location to see the next 7 days of passes ≥ 10°. The values pass through the URL so the page stays shareable.

No JS? Fill the form by hand. The geolocation button needs JavaScript.